Location: Newark
(34.9500°N, 139.9667°E)
Time: 20:16:49
(UTC+00:00)

deb Explorer IX - Pass Details

Date: 11 December 2019
Orbit: 548 x 1101 km, 38.8° (Epoch: 28 January)

Event Time Altitude Azimuth Distance (km) Brightness Sun altitude
Rises 09:17:32 0° 280° (W) 3,482 ? -21.6°
Reaches altitude 10° 09:20:00 10° 283° (WNW) 2,621 ? -22.1°
Maximum altitude 09:26:22 64° 5° (N) 1,114 ? -23.4°
Enters shadow 09:28:16 47° 63° (ENE) 1,344 ? -23.8°
